Torna al catalogo

SL-12 DEB

AttivoHEO
NORAD 26037·DEBRIS·🇷🇺 Russia

Lanciato Sep 16, 1987 da Baikonur Cosmodrome

Loading…

Prossimi Passaggi (prossime 24 ore)

TLE

AggiornatoSource: Space-Track

Epoca: Sep 13, 2026, 11:03 UTC

1 26037U 87079W   26256.46107843 -.00000242  00000-0 -74147-3 0  9999
2 26037  64.9870  19.9685 5411367  62.5575 341.8253  4.64002941468182

Traccia SL-12 DEB in tempo reale con AllMySat

Download on the App Store